Location: ???????
(55.4362°N, 38.1183°E)
Time: 17:57:09
(UTC+00:00)

Cosmos 2278 Rocket - Pass Details

Date: 29 October 2021
Orbit: 841 x 845 km, 71.0° (Epoch: 28 November)

Event Time Altitude Azimuth Distance (km) Brightness Sun altitude
Rises 18:16:51 0° 319° (NW) 3,417 6.3 -36.5°
Reaches altitude 10° 18:20:04 10° 301° (WNW) 2,476 5.4 -36.8°
Maximum altitude 18:23:42 18° 261° (W) 1,979 4.5 -37.3°
Enters shadow 18:24:34 17° 250° (WSW) 2,009 4.4 -37.4°
